Zurück zum Katalog

FREGAT R/B

LostHEO
NORAD 44454·ROCKET BODY·🇷🇺 Russia

Gestartet Jul 30, 2019 von Plesetsk Cosmodrome

Loading…

Nächste Überflüge (nächste 24 Stunden)

TLE

VeraltetSource: Space-Track

Epoche: Aug 27, 2025, 19:08 UTC

1 44454U 19046B   25239.79772573  .00000594  00000-0  00000-0 0  9997
2 44454  63.0712  74.5954 7079556 276.4920  14.2031  2.00663237 44553

Verfolge FREGAT R/B in Echtzeit mit AllMySat

Download on the App Store